Weather History for Tallahassee, FL

Change the Weather History Date:

Monday, February 4, 2013

  Actual Average Record
Temperature  
Mean Temperature 49 °F 53 °F  
Max Temperature 64 °F 65 °F 83 °F (1932)
Min Temperature 34 °F 40 °F 20 °F (1951)
Degree Days  
Heating Degree Days 16    
Month to date heating degree days 65  
Since 1 July heating degree days 783  
Cooling Degree Days 0    
Month to date cooling degree days 0  
Year to date cooling degree days 34  
Moisture  
Dew Point 37 °F    
Average Humidity 62    
Maximum Humidity 89    
Minimum Humidity 34    
Precipitation  
Precipitation 0.00 in 0.16 in 2.32 in (1959)
Month to date precipitation T 0.63  
Year to date precipitation 0.85 4.97  
Sea Level Pressure  
Sea Level Pressure 30.10 in    
Wind  
Wind Speed 2 mph (SE)    
Max Wind Speed 9 mph    
Max Gust Speed 13 mph    
Visibility 10 miles    
Events      
T = Trace of Precipitation, MM = Missing Value Source: NWS Daily Summary

Daily Weather History Graph

Daily Weather History Graph

Search for Another Location

Airport:

Trip Planner

Search our weather history database for the weather conditions in past years. The results will help you decide how hot, cold, wet, or windy it might be!

Date:

Astronomy

Feb. 04, 2013 Rise Set
Actual Time 7:26 AM EST 6:16 PM EST
Civil Twilight 7:01 AM EST 6:41 PM EST
Nautical Twilight 6:32 AM EST 7:10 PM EST
Astronomical Twilight 6:04 AM EST 7:38 PM EST
Moon 1:56 AM EST (2/4) 12:45 PM EST (2/4)
Length of Visible Light 11h 40m
Length of Day
10h 50m
Last Quarter, 37% of the Moon is Illuminated
Feb 4
Last Quarter
Feb 10
New
Feb 17
First Quarter
Feb 25
Full
Mar 4
Last Quarter

Hourly Weather History & Observations

Time (EST) Temp. Dew Point Humidity Pressure Visibility Wind Dir Wind Speed Gust Speed Precip Events Conditions
12:53 AM 37.9 °F 30.9 °F 76% 30.12 in 10.0 mi Calm Calm - N/A   Clear
1:53 AM 36.0 °F 30.0 °F 79% 30.11 in 10.0 mi Calm Calm - N/A   Clear
2:53 AM 36.0 °F 30.9 °F 82% 30.10 in 10.0 mi Calm Calm - N/A   Clear
3:53 AM 36.0 °F 30.9 °F 82% 30.10 in 10.0 mi Calm Calm - N/A   Clear
5:53 AM 36.0 °F 32.0 °F 86% 30.12 in 10.0 mi Calm Calm - N/A   Clear
6:53 AM 35.6 °F 32.0 °F 87% 30.12 in 10.0 mi Calm Calm - N/A   Clear
7:53 AM 37.0 °F 33.1 °F 86% 30.11 in 10.0 mi Calm Calm - N/A   Clear
8:53 AM 44.1 °F 37.0 °F 76% 30.12 in 10.0 mi Calm Calm - N/A   Clear
9:53 AM 53.1 °F 35.1 °F 50% 30.13 in 10.0 mi ENE 3.5 mph - N/A   Clear
10:53 AM 55.9 °F 32.0 °F 40% 30.13 in 10.0 mi East 8.1 mph - N/A   Clear
11:53 AM 57.9 °F 32.0 °F 37% 30.13 in 10.0 mi East 3.5 mph - N/A   Clear
12:53 PM 60.1 °F 33.1 °F 36% 30.12 in 10.0 mi SE 3.5 mph - N/A   Clear
1:53 PM 62.1 °F 34.0 °F 35% 30.09 in 10.0 mi Variable 3.5 mph - N/A   Clear
3:53 PM 63.0 °F 39.0 °F 41% 30.08 in 10.0 mi SW 5.8 mph - N/A   Clear
4:53 PM 63.0 °F 41.0 °F 45% 30.06 in 10.0 mi SSE 9.2 mph - N/A   Clear
5:53 PM 61.0 °F 43.0 °F 52% 30.06 in 10.0 mi South 4.6 mph - N/A   Clear
6:53 PM 55.9 °F 45.0 °F 67% 30.06 in 10.0 mi SSE 4.6 mph - N/A   Clear
7:53 PM 55.0 °F 46.0 °F 72% 30.08 in 10.0 mi Calm Calm - N/A   Clear
8:53 PM 54.0 °F 46.9 °F 77% 30.08 in 10.0 mi Calm Calm - N/A   Clear
9:53 PM 53.1 °F 46.9 °F 80% 30.05 in 9.0 mi SSE 5.8 mph - N/A   Clear
10:53 PM 54.0 °F 48.9 °F 83% 30.07 in 10.0 mi Calm Calm - N/A   Mostly Cloudy
11:53 PM 53.1 °F 48.0 °F 83% 30.04 in 9.0 mi Calm Calm - N/A   Clear